Date,TemperatureHighF,TemperatureAvgF,TemperatureLowF,DewpointHighF,DewpointAvgF,DewpointLowF,HumidityHigh,HumidityAvg,HumidityLow,PressureMaxIn,PressureMinIn,WindSpeedMaxMPH,WindSpeedAvgMPH,GustSpeedMaxMPH,PrecipitationSumIn
2013-1-1,65,56,48,-100,-100,-100,0,0,100,0.00,40.00,0,-999,0,0.00
2013-1-2,45,41,39,-100,-100,-100,0,0,100,0.00,40.00,0,-999,0,0.00
2013-1-3,47,40,35,-100,-100,-100,0,0,100,0.00,40.00,0,-999,0,0.00
2013-1-4,47,42,36,-100,-100,-100,0,0,100,0.00,40.00,0,-999,0,0.00
2013-1-5,44,42,40,-100,-100,-100,0,0,100,0.00,40.00,0,-999,0,0.00
2013-1-6,53,45,40,-100,-100,-100,0,0,100,0.00,40.00,0,-999,0,0.00
2013-1-7,56,45,36,-100,-100,-100,0,0,100,0.00,40.00,0,-999,0,0.00
2013-1-8,62,54,47,-100,-100,-100,0,0,100,0.00,40.00,0,-999,0,0.00
2013-1-9,65,62,60,-100,-100,-100,0,0,100,0.00,40.00,0,-999,0,0.00
2013-1-10,66,64,61,-100,-100,-100,0,0,100,0.00,40.00,0,-999,0,0.00
2013-1-11,72,64,55,-100,-100,-100,0,0,100,0.00,40.00,0,-999,0,0.00
2013-1-12,76,73,70,-100,-100,-100,0,0,100,0.00,40.00,0,-999,0,0.00
2013-1-13,74,60,44,-100,-100,-100,0,0,100,0.00,40.00,0,-999,0,0.00
2013-1-14,42,39,33,-100,-100,-100,0,0,100,0.00,40.00,0,-999,0,0.00
2013-1-15,36,35,32,-100,-100,-100,0,0,100,0.00,40.00,0,-999,0,0.00
2013-1-16,36,34,32,-100,-100,-100,0,0,100,0.00,40.00,0,-999,0,0.00
2013-1-17,52,38,30,-100,-100,-100,0,0,100,0.00,40.00,0,-999,0,0.00
2013-1-18,56,41,34,-100,-100,-100,0,0,100,0.00,40.00,0,-999,0,0.00
2013-1-19,62,45,33,-100,-100,-100,0,0,100,0.00,40.00,0,-999,0,0.00
2013-1-20,65,49,35,-100,-100,-100,0,0,100,0.00,40.00,0,-999,0,0.00
2013-1-21,71,51,43,-100,-100,-100,0,0,100,0.00,40.00,0,-999,0,0.00
2013-1-22,66,51,39,-100,-100,-100,0,0,100,0.00,40.00,0,-999,0,0.00
2013-1-23,69,57,45,-100,-100,-100,0,0,100,0.00,40.00,0,-999,0,0.00
2013-1-24,73,63,51,-100,-100,-100,0,0,100,0.00,40.00,0,-999,0,0.00
2013-1-25,75,64,54,-100,-100,-100,0,0,100,0.00,40.00,0,-999,0,0.00
2013-1-26,77,63,55,-100,-100,-100,0,0,100,0.00,40.00,0,-999,0,0.00
2013-1-27,77,65,54,-100,-100,-100,0,0,100,0.00,40.00,0,-999,0,0.00
2013-1-28,76,67,61,-100,-100,-100,0,0,100,0.00,40.00,0,-999,0,0.00
2013-1-29,77,72,69,-100,-100,-100,0,0,100,0.00,40.00,0,-999,0,0.00
2013-1-30,73,60,51,-100,-100,-100,0,0,100,0.00,40.00,0,-999,0,0.00
2013-1-31,61,53,41,-100,-100,-100,0,0,100,0.00,40.00,0,-999,0,0.00